Home > Weather > Alicante > Past weeks

Flag for Spain Weather for the Past 2 Weeks in Alicante, Spain

Now
59 °F

Passing clouds.


Feels Like: 60 °F
Forecast: 63 / 73 °F
Wind: 3 mph from Southwest

Location: Alicante / El Altet

Current Time: Feb 10, 2016 at 5:46:17 AM

Latest Report: Feb 10, 2016 at 5:00 AM


Visibility: N/A

Pressure: 30.01 "Hg

Humidity: 63%

Dew point: 46 °F

Location of AlicanteLocation

Historic Weather in Alicante — Graph

°F

Alicante Temperature Yesterday

Maximum temperature yesterday: 72 °F (at 2:00 PM)
Minimum temperature yesterday: 57 °F (at 7:00 AM)
Average temperature yesterday: 63 °F

High & Low Weather Summary for the Past Weeks

 TemperatureHumidityPressure
High73 °F (Jan 31, 3:00 PM)100% (Jan 28, 1:30 AM)30.63 "Hg (Jan 28, 1:30 AM)
Low45 °F (Feb 2, 7:30 AM)25% (Feb 7, 2:30 PM)29.86 "Hg (Feb 7, 7:00 AM)
Average58 °F70%30.34 "Hg
* Reported Jan 26 4:00 AM — Feb 10 4:30 AM, Alicante, Weather by CustomWeather, © 2016

Note: Actual official high and low records may vary slightly from our data, if they occured in-between our weather recording intervals... More about our weather records

Advertising

Alicante Weather History for the Previous 24 Hours

 ConditionsComfort  
Time TempWeatherWind HumidityBarometerVisibility
4:30 AM
Wed, Feb 10
59 °FPassing clouds.3 mph63%30.01 "HgN/A
4:00 AM61 °FClear.1 mph59%30.01 "Hg10 mi
3:30 AM59 °FClear.2 mph63%30.01 "Hg10 mi
3:00 AM57 °FClear.3 mph67%30.01 "Hg10 mi
2:30 AM59 °FPassing clouds.3 mph59%30.01 "HgN/A
1:30 AM55 °FClear.No wind67%30.01 "Hg10 mi
1:00 AM59 °FClear.No wind59%30.04 "Hg10 mi
12:30 AM57 °FClear.1 mph59%30.04 "Hg10 mi
12:00 AM57 °FClear.No wind59%30.04 "Hg10 mi
11:30 PM
Tue, Feb 9
59 °FClear.1 mph51%30.04 "Hg10 mi
10:30 PM59 °FPassing clouds.3 mph51%30.01 "HgN/A
10:00 PM61 °FClear.3 mph45%30.04 "Hg10 mi
9:30 PM64 °FPassing clouds.7 mph37%30.04 "HgN/A
9:00 PM64 °FPassing clouds.9 mph43%30.01 "HgN/A
8:30 PM63 °FClear.7 mph45%30.04 "Hg10 mi
8:00 PM64 °FClear.1 mph43%30.07 "Hg10 mi
7:30 PM66 °FPassing clouds.8 mph37%30.04 "HgN/A
7:00 PM68 °FPassing clouds.14 mph35%30.04 "HgN/A
6:30 PM66 °FPassing clouds.9 mph37%30.04 "HgN/A
6:00 PM68 °FPassing clouds.15 mph33%30.04 "HgN/A
5:30 PM70 °FPassing clouds.20 mph31%30.04 "HgN/A
4:30 PM70 °FSunny.20 mph31%30.07 "Hg10 mi
4:00 PM72 °FSunny.14 mph27%30.07 "Hg10 mi
3:00 PM72 °FPassing clouds.16 mph27%30.07 "HgN/A
2:30 PM72 °FPassing clouds.21 mph27%30.07 "HgN/A
2:00 PM72 °FSunny.25 mph27%30.07 "Hg10 mi
1:30 PM70 °FPassing clouds.22 mph31%30.09 "HgN/A
1:00 PM70 °FSunny.17 mph29%30.12 "Hg10 mi
12:30 PM66 °FPassing clouds.17 mph35%30.15 "HgN/A
11:30 AM63 °FSunny.21 mph42%30.15 "Hg10 mi
11:00 AM63 °FSunny.20 mph42%30.15 "Hg10 mi
10:30 AM61 °FSunny.14 mph45%30.18 "Hg10 mi
10:00 AM59 °FPassing clouds.18 mph51%30.18 "HgN/A
9:00 AM57 °FSunny.15 mph55%30.15 "Hg10 mi
8:30 AM57 °FPassing clouds.14 mph51%30.15 "HgN/A
8:00 AM57 °FPassing clouds.15 mph55%30.15 "HgN/A
7:30 AM57 °FClear.18 mph51%30.15 "Hg10 mi
7:00 AM57 °FPassing clouds.23 mph51%30.15 "HgN/A
6:30 AM59 °FPassing clouds.16 mph48%30.15 "HgN/A
5:30 AM59 °FPassing clouds.14 mph48%30.15 "HgN/A
Weather by CustomWeather, © 2016

See weather overviewHow to use our weather pages